Date,TemperatureHighF,TemperatureAvgF,TemperatureLowF,DewpointHighF,DewpointAvgF,DewpointLowF,HumidityHigh,HumidityAvg,HumidityLow,PressureMaxIn,PressureMinIn,WindSpeedMaxMPH,WindSpeedAvgMPH,GustSpeedMaxMPH,PrecipitationSumIn
2013-1-1,49.0,38.1,31.0,24.0,20.8,18.0,65,51,34,0.00,40.00,3,0,10,0.00
2013-1-2,51.0,40.5,33.0,21.0,18.4,16.0,62,42,26,0.00,40.00,6,1,12,0.00
2013-1-3,51.0,42.6,38.0,18.0,14.9,11.0,41,33,21,0.00,40.00,5,1,13,0.00
2013-1-4,51.0,37.4,30.0,19.0,16.1,12.0,60,44,22,0.00,40.00,4,0,9,0.00
2013-1-5,49.0,36.7,29.0,23.0,19.7,17.0,66,52,30,0.00,40.00,6,0,14,0.00
2013-1-6,49.0,43.4,38.0,22.0,19.5,19.0,50,38,30,0.00,40.00,6,2,15,0.00
2013-1-7,56.0,43.4,34.0,22.0,19.8,18.0,58,40,24,0.00,40.00,3,1,9,0.00
2013-1-8,56.0,39.4,31.0,28.0,23.6,21.0,70,55,28,0.00,40.00,1,0,6,0.00
2013-1-9,60.0,44.3,33.0,32.0,27.5,25.0,75,54,30,0.00,40.00,5,0,12,0.00
2013-1-10,61.0,46.1,38.0,34.0,28.8,25.0,69,53,28,0.00,40.00,12,2,56,0.00
2013-1-11,44.0,39.4,35.0,28.0,15.7,10.0,65,39,26,0.00,40.00,8,2,18,0.00
2013-1-12,42.0,36.6,31.0,19.0,13.4,10.0,56,39,28,0.00,40.00,6,1,13,0.00
2013-1-13,42.0,34.8,30.0,12.0,10.5,8.0,44,36,28,0.00,40.00,7,2,15,0.00
2013-1-14,41.0,33.1,29.0,13.0,8.6,3.0,45,36,25,0.00,40.00,4,1,11,0.00
2013-1-15,42.0,32.4,26.0,11.0,7.1,4.0,45,35,24,0.00,40.00,4,0,9,0.00
2013-1-16,52.0,35.5,27.0,20.0,15.7,11.0,58,45,26,0.00,40.00,3,0,9,0.00
2013-1-17,57.0,42.6,30.0,22.0,20.1,19.0,65,43,23,0.00,40.00,5,1,13,0.00
2013-1-18,59.0,44.0,33.0,24.0,21.4,18.0,60,42,24,0.00,40.00,5,1,15,0.00
2013-1-19,59.0,41.4,32.0,28.0,23.7,22.0,67,52,27,0.00,40.00,4,0,10,0.00
2013-1-20,60.0,41.0,31.0,29.0,23.2,21.0,67,51,24,0.00,40.00,4,0,8,0.00
2013-1-21,60.0,41.7,31.0,27.0,22.3,20.0,67,49,23,0.00,40.00,4,0,10,0.00
2013-1-22,63.0,42.8,32.0,27.0,22.2,20.0,65,47,20,0.00,40.00,3,0,8,0.00
2013-1-23,60.0,45.4,33.0,28.0,25.1,21.0,62,46,27,0.00,40.00,1,0,5,0.00
2013-1-24,55.0,49.5,44.0,41.0,32.5,27.0,72,53,38,0.00,40.00,3,0,9,0.00
2013-1-25,62.0,52.2,46.0,45.0,42.7,41.0,89,71,47,0.00,40.00,1,0,5,0.00
2013-1-26,51.0,49.4,49.0,48.0,46.1,44.0,91,88,77,0.00,40.00,1,0,5,0.00
2013-3-27,81.0,74.5,66.0,22.0,19.1,17.0,18,12,9,0.00,40.00,5,1,14,0.00
2013-3-28,83.0,68.8,54.0,34.0,26.3,21.0,44,22,12,0.00,40.00,6,1,19,0.00
2013-3-29,85.0,69.0,55.0,38.0,30.9,22.0,50,27,10,0.00,40.00,4,0,13,0.00
2013-3-30,84.0,68.4,56.0,42.0,32.6,-99.9,50,30,12,0.00,40.00,5,0,11,0.00
2013-3-31,82.0,68.5,55.0,40.0,33.1,23.0,54,30,12,0.00,40.00,5,0,15,0.00
2013-4-1,81.0,69.2,60.0,38.0,27.1,6.0,43,24,6,0.00,40.00,7,2,23,0.00
2013-4-2,76.0,65.4,56.0,34.0,32.2,30.0,41,29,21,0.00,40.00,9,1,22,0.00
2013-4-3,83.0,66.4,52.0,38.0,31.4,24.0,54,30,12,0.00,40.00,3,0,8,0.00
2013-4-4,88.0,70.2,54.0,38.0,27.3,15.0,48,24,7,0.00,40.00,5,0,18,0.00
2013-4-5,89.0,74.5,64.0,37.0,27.4,15.0,37,19,7,0.00,40.00,6,1,17,0.00
2013-4-6,87.0,73.4,59.0,38.0,30.0,23.0,44,22,11,0.00,40.00,5,1,13,0.00
2013-4-7,86.0,72.7,59.0,38.0,26.2,11.0,41,20,7,0.00,40.00,7,1,18,0.00
2013-4-8,71.0,62.2,50.0,42.0,36.5,29.0,71,41,22,0.00,40.00,13,4,47,1.84
2013-4-9,62.0,56.5,53.0,38.0,30.1,24.0,57,37,26,0.00,40.00,7,2,17,3.60
2013-4-10,70.0,58.3,48.0,32.0,25.3,19.0,44,29,15,0.00,40.00,5,1,17,3.60
2013-4-11,79.0,63.6,51.0,39.0,31.3,25.0,53,33,15,0.00,40.00,7,1,15,3.60
2013-4-12,83.0,65.7,51.0,38.0,29.3,16.0,56,30,9,0.00,40.00,6,1,16,3.60
2013-4-13,88.0,71.3,54.0,39.0,27.5,18.0,49,24,8,0.00,40.00,10,2,33,3.60
2013-4-14,89.0,76.0,65.0,33.0,29.8,24.0,30,19,10,0.00,40.00,11,3,31,3.60
2013-4-15,85.0,73.1,64.0,40.0,32.2,22.0,34,24,11,0.00,40.00,10,4,33,3.60
2013-4-16,74.0,65.3,55.0,41.0,30.9,16.0,41,29,15,0.00,40.00,10,4,46,4.00
2013-4-17,58.0,53.4,51.0,32.0,27.1,13.0,45,37,20,0.00,40.00,9,2,24,2.72
2013-4-18,69.0,56.6,46.0,21.0,14.9,9.0,37,20,10,0.00,40.00,4,0,11,4.08
2013-4-19,77.0,62.3,48.0,24.0,18.5,11.0,39,20,8,0.00,40.00,5,1,15,4.08
2013-4-20,81.0,67.0,51.0,30.0,22.3,15.0,42,21,9,0.00,40.00,8,1,22,4.08
2013-4-21,89.0,71.0,53.0,35.0,24.4,13.0,47,22,6,0.00,40.00,5,1,20,4.08
2013-4-22,94.0,76.8,60.0,29.0,20.8,13.0,29,14,6,0.00,40.00,8,1,29,4.08
2013-4-23,80.0,72.1,64.0,27.0,15.8,0.0,23,13,6,0.00,40.00,5,1,14,4.08
2013-4-24,85.0,69.0,52.0,18.0,8.9,3.0,23,11,5,0.00,40.00,5,1,14,4.08
2013-4-25,82.0,69.3,57.0,29.0,20.9,6.0,30,17,8,0.00,40.00,4,0,17,4.08
2013-4-26,88.0,72.6,58.0,35.0,21.9,7.0,40,18,5,0.00,40.00,8,1,18,4.08
2013-4-27,91.0,73.2,56.0,32.0,17.5,8.0,37,15,5,0.00,40.00,3,0,11,4.08
2013-4-28,94.0,75.5,58.0,33.0,20.6,11.0,38,16,5,0.00,40.00,4,0,12,4.08
2013-4-29,99.0,79.7,61.0,36.0,21.9,11.0,39,15,4,0.00,40.00,6,1,22,4.08
2013-4-30,96.0,84.5,75.0,29.0,15.9,6.0,17,9,4,0.00,40.00,12,3,42,4.11
2013-5-1,86.0,76.8,66.0,30.0,11.9,-5.0,25,10,3,0.00,40.00,8,2,25,4.32
2013-5-2,80.0,68.3,58.0,19.0,11.9,5.0,21,12,7,0.00,40.00,6,2,16,4.32
2013-5-3,88.0,72.5,61.0,17.0,10.2,2.0,17,10,4,0.00,40.00,5,1,12,4.32
2013-5-4,93.0,76.7,57.0,28.0,13.9,6.0,32,11,4,0.00,40.00,7,1,21,4.32
2013-5-5,82.0,75.6,70.0,34.0,24.7,12.0,26,16,8,0.00,40.00,7,1,31,4.32
2013-5-6,80.0,73.1,68.0,41.0,33.6,22.0,31,24,14,0.00,40.00,8,1,29,4.32
2013-5-7,78.0,67.5,54.0,49.0,40.4,28.0,70,40,16,0.00,40.00,6,1,22,5.06
2013-5-8,78.0,65.2,52.0,47.0,39.5,31.0,74,44,19,0.00,40.00,7,1,16,7.20
2013-5-9,84.0,68.5,56.0,48.0,38.9,30.0,58,37,14,0.00,40.00,6,1,19,7.20
2013-5-10,88.0,70.5,57.0,50.0,40.6,-99.9,73,41,16,0.00,40.00,9,1,17,7.20
2013-5-11,91.0,75.7,61.0,46.0,35.7,-99.9,55,27,11,0.00,40.00,6,1,16,7.20
2013-5-12,97.0,78.9,61.0,40.0,31.0,21.0,45,21,7,0.00,40.00,3,0,9,7.20
2013-5-13,102.0,82.2,64.0,40.0,28.6,17.0,41,18,5,0.00,40.00,4,0,9,7.20
2013-5-14,101.0,84.5,68.0,44.0,28.8,16.0,40,16,5,0.00,40.00,8,1,26,7.20
2013-5-15,97.0,84.9,68.0,41.0,21.6,6.0,37,12,4,0.00,40.00,9,2,29,7.20
2013-5-16,99.0,78.9,66.0,37.0,9.2,-99.9,34,12,4,0.00,40.00,4,1,20,7.20
2013-5-17,90.0,80.0,70.0,39.0,24.7,-99.9,31,15,7,0.00,40.00,8,2,29,7.20
2013-5-18,87.0,77.1,64.0,43.0,33.2,27.0,43,21,13,0.00,40.00,9,1,23,7.20
2013-5-19,90.0,77.8,66.0,39.0,30.5,20.0,35,20,8,0.00,40.00,9,2,22,7.20
2013-5-20,87.0,75.2,66.0,34.0,31.0,25.0,29,20,12,0.00,40.00,5,1,11,7.20
2013-5-21,93.0,79.8,64.0,39.0,27.4,15.0,39,17,6,0.00,40.00,4,1,14,7.20
2013-5-22,98.0,84.5,68.0,34.0,21.1,11.0,28,11,5,0.00,40.00,10,2,33,7.20
2013-5-23,96.0,84.8,73.0,31.0,19.7,8.0,21,10,4,0.00,40.00,12,2,35,7.20
2013-5-24,97.0,81.1,63.0,31.0,16.6,5.0,29,10,4,0.00,40.00,8,1,29,7.20
2013-5-25,97.0,82.5,66.0,38.0,19.9,7.0,36,13,4,0.00,40.00,7,1,25,7.20
2013-5-26,97.0,83.2,71.0,34.0,19.3,13.0,26,10,5,0.00,40.00,9,1,25,7.20
2013-5-27,97.0,83.2,68.0,35.0,21.4,13.0,29,12,5,0.00,40.00,5,1,21,7.20
2013-5-28,93.0,83.1,72.0,37.0,27.2,21.0,26,14,9,0.00,40.00,8,2,25,7.20
2013-5-29,93.0,81.1,67.0,40.0,27.9,18.0,37,16,8,0.00,40.00,6,1,18,7.20
2013-5-30,100.0,85.4,70.0,41.0,27.3,14.0,32,15,5,0.00,40.00,5,1,16,7.20
2013-5-31,99.0,86.1,71.0,45.0,26.5,4.0,38,15,4,0.00,40.00,8,2,21,7.20
2013-6-1,100.0,86.5,74.0,16.0,9.7,4.0,9,6,3,0.00,40.00,5,1,16,7.20
2013-6-2,105.0,89.4,72.0,29.0,18.6,11.0,20,8,4,0.00,40.00,6,1,15,7.20
2013-6-3,103.0,90.5,73.0,41.0,25.7,15.0,29,12,5,0.00,40.00,4,1,20,7.20
2013-6-4,103.0,89.2,71.0,40.0,23.1,8.0,32,11,3,0.00,40.00,3,0,13,7.20
2013-6-5,104.0,89.3,73.0,39.0,24.7,13.0,28,12,4,0.00,40.00,5,1,15,7.20
2013-6-6,107.0,90.0,72.0,39.0,22.9,8.0,30,11,3,0.00,40.00,6,1,18,7.20
2013-6-7,108.0,90.1,72.0,38.0,23.0,8.0,27,11,3,0.00,40.00,7,1,16,7.20
2013-6-8,112.0,93.0,74.0,39.0,23.8,11.0,28,11,3,0.00,40.00,8,1,21,7.20
2013-6-9,112.0,96.3,76.0,38.0,23.0,12.0,25,9,3,0.00,40.00,5,1,20,7.20
2013-6-10,107.0,94.1,77.0,35.0,13.5,-2.0,20,7,2,0.00,40.00,7,2,25,7.20
2013-6-11,106.0,92.5,76.0,38.0,22.1,9.0,25,9,3,0.00,40.00,5,1,15,7.20
2013-6-12,107.0,92.7,76.0,43.0,26.6,15.0,30,11,4,0.00,40.00,6,1,16,7.20
2013-6-13,106.0,93.9,79.0,46.0,25.8,10.0,29,10,4,0.00,40.00,9,2,30,7.20
2013-6-14,105.0,91.4,75.0,32.0,20.4,7.0,20,9,3,0.00,40.00,9,1,29,7.20
2013-6-15,103.0,92.1,79.0,41.0,28.8,18.0,26,12,5,0.00,40.00,8,1,28,7.20
2013-6-16,106.0,92.3,77.0,39.0,23.3,9.0,25,10,3,0.00,40.00,5,1,17,7.20
2013-6-17,106.0,91.3,72.0,37.0,15.8,-5.0,27,9,2,0.00,40.00,7,1,19,7.20
2013-6-18,107.0,91.0,71.0,32.0,12.3,-2.0,22,7,2,0.00,40.00,8,1,26,7.20
2013-6-19,103.0,91.3,74.0,33.0,14.5,4.0,21,7,3,0.00,40.00,9,2,30,7.20
2013-6-20,103.0,84.8,72.0,28.0,18.1,6.0,18,9,3,0.00,40.00,6,1,15,4.80
2013-6-21,102.0,98.8,96.0,16.0,13.5,11.0,5,4,4,0.00,40.00,4,2,13,0.90
2013-6-22,104.0,95.1,75.0,34.0,18.5,12.0,22,7,4,0.00,40.00,7,2,22,5.10
2013-6-23,103.0,90.4,74.0,37.0,19.4,11.0,24,9,4,0.00,40.00,9,2,28,7.20
2013-6-24,97.0,88.1,78.0,37.0,21.7,11.0,21,10,5,0.00,40.00,9,2,26,7.20
2013-6-25,105.0,88.2,69.0,34.0,25.1,15.0,26,11,5,0.00,40.00,5,1,16,6.90
2013-6-26,109.0,94.2,75.0,41.0,28.3,15.0,30,11,4,0.00,40.00,7,1,17,7.20
2013-6-27,114.0,94.5,79.0,49.0,34.1,13.0,35,15,3,0.00,40.00,4,0,14,7.20
2013-6-28,112.0,97.9,82.0,49.0,33.8,20.0,31,12,4,0.00,40.00,2,0,8,7.20
2013-6-29,115.0,99.9,81.0,50.0,31.1,19.0,31,11,4,0.00,40.00,5,0,20,7.20
2013-6-30,113.0,95.9,81.0,49.0,35.6,21.0,32,14,4,0.00,40.00,6,0,14,7.20
2013-7-1,115.0,98.7,84.0,50.0,35.4,21.0,29,13,4,0.00,40.00,4,0,15,7.20
2013-7-2,108.0,96.2,84.0,54.0,42.1,26.0,34,17,7,0.00,40.00,7,1,25,7.11
2013-7-3,115.0,96.3,81.0,58.0,43.4,21.0,43,20,4,0.00,40.00,5,1,25,7.13
2013-7-4,113.0,99.8,84.0,55.0,38.7,28.0,36,14,6,0.00,40.00,7,1,18,7.44
2013-7-5,108.0,90.7,74.0,69.0,51.9,39.0,82,34,10,0.00,40.00,6,1,21,9.55
2013-7-6,100.0,83.9,75.0,69.0,61.4,48.0,79,51,18,0.00,40.00,5,0,17,17.71
2013-7-7,102.0,87.6,73.0,63.0,56.5,46.0,67,39,15,0.00,40.00,8,0,24,18.48
2013-7-8,107.0,89.2,79.0,60.0,48.8,-99.9,51,29,8,0.00,40.00,1,0,8,18.48
2013-7-9,110.0,92.9,75.0,53.0,38.1,18.0,44,19,4,0.00,40.00,5,0,13,18.48
2013-7-10,105.0,90.9,78.0,52.0,39.6,-99.9,37,19,7,0.00,40.00,4,0,15,17.71
2013-7-11,99.0,91.1,84.0,65.0,56.1,43.0,47,32,17,0.00,40.00,6,1,17,18.64
2013-7-12,98.0,87.4,79.0,63.0,56.7,49.0,57,38,19,0.00,40.00,5,1,15,18.96
2013-7-13,102.0,86.6,78.0,69.0,61.6,49.0,71,47,17,0.00,40.00,8,1,19,14.71
2013-7-14,106.0,96.9,79.0,69.0,54.4,45.0,71,27,14,0.00,40.00,7,1,18,10.20
2013-7-15,101.0,88.1,81.0,67.0,59.3,50.0,63,40,19,0.00,40.00,6,1,15,17.12
2013-7-16,100.0,85.3,78.0,63.0,59.5,53.0,58,43,22,0.00,40.00,6,1,17,25.68
2013-7-17,103.0,86.7,75.0,64.0,58.9,50.0,64,42,18,0.00,40.00,8,1,18,24.61
2013-7-18,101.0,86.1,79.0,67.0,59.3,50.0,64,43,18,0.00,40.00,6,1,19,25.87
2013-7-19,105.0,84.9,76.0,70.0,60.4,46.0,79,49,14,0.00,40.00,7,0,16,25.80
2013-7-20,104.0,85.4,73.0,68.0,60.3,-99.9,76,49,17,0.00,40.00,7,0,17,30.75
2013-7-21,100.0,85.3,73.0,69.0,62.4,51.0,80,52,22,0.00,40.00,10,1,25,38.77
2013-7-22,90.0,79.8,73.0,68.0,65.9,62.0,82,64,40,0.00,40.00,3,0,8,43.44
2013-7-23,102.0,86.2,77.0,67.0,62.0,54.0,68,47,22,0.00,40.00,5,1,11,39.82
2013-7-24,104.0,88.8,76.0,67.0,59.3,43.0,71,42,13,0.00,40.00,3,0,11,41.63
2013-7-25,103.0,90.7,80.0,61.0,57.2,50.0,47,34,18,0.00,40.00,7,1,20,41.63
2013-7-26,104.0,86.9,80.0,66.0,60.2,54.0,56,42,19,0.00,40.00,4,0,9,40.18
2013-7-27,95.0,85.0,79.0,63.0,59.8,57.0,57,43,29,0.00,40.00,5,1,18,44.40
2013-7-28,91.0,79.9,71.0,65.0,61.8,58.0,76,55,37,0.00,40.00,5,0,12,46.81
2013-7-29,98.0,80.6,69.0,68.0,60.6,45.0,89,58,19,0.00,40.00,5,0,13,47.40
2013-7-30,104.0,87.2,72.0,60.0,50.2,37.0,65,32,10,0.00,40.00,4,0,14,51.84
2013-7-31,104.0,89.1,74.0,61.0,51.4,41.0,59,31,12,0.00,40.00,4,0,11,51.84
2013-8-1,101.0,82.8,75.0,71.0,61.0,48.0,86,52,17,0.00,40.00,3,0,16,52.30
2013-8-2,101.0,84.0,73.0,72.0,62.6,38.0,87,58,13,0.00,40.00,3,0,14,70.32
2013-8-3,101.0,88.8,76.0,62.0,54.0,46.0,61,34,17,0.00,40.00,4,1,10,70.32
2013-8-4,102.0,85.8,75.0,62.0,55.1,45.0,62,38,15,0.00,40.00,7,1,15,70.32
2013-8-5,103.0,85.7,72.0,63.0,50.7,32.0,68,37,9,0.00,40.00,3,0,11,70.32
2013-8-6,91.0,85.4,80.0,57.0,50.4,36.0,45,31,15,0.00,40.00,5,0,10,70.32
2013-8-7,96.0,84.3,75.0,59.0,52.2,46.0,56,35,20,0.00,40.00,5,1,9,70.32
2013-8-8,103.0,86.2,71.0,54.0,40.5,21.0,55,26,6,0.00,40.00,7,0,14,70.32
2013-8-9,103.0,87.7,72.0,47.0,33.0,18.0,40,17,5,0.00,40.00,5,0,14,70.32
2013-8-10,99.0,87.2,75.0,52.0,40.1,26.0,42,21,9,0.00,40.00,5,0,16,70.32
2013-8-11,94.0,83.8,78.0,63.0,52.6,36.0,56,35,16,0.00,40.00,5,1,13,71.03
2013-8-12,100.0,82.6,71.0,58.0,50.9,31.0,64,38,10,0.00,40.00,7,0,22,71.76
2013-8-13,105.0,85.2,71.0,52.0,37.2,-99.9,50,24,6,0.00,40.00,3,0,12,71.76
2013-8-14,107.0,89.4,71.0,44.0,35.9,27.0,38,17,7,0.00,40.00,5,0,20,65.78
2013-8-21,99.0,82.8,75.0,65.0,56.8,48.0,70,44,19,0.00,40.00,7,0,13,75.99
2013-8-22,91.0,81.4,71.0,67.0,61.6,57.0,79,53,37,0.00,40.00,2,0,7,73.83
2013-8-23,96.0,84.4,75.0,60.0,55.7,47.0,54,39,23,0.00,40.00,5,1,15,73.83
2013-8-24,86.0,76.5,70.0,67.0,57.7,-99.9,84,56,36,0.00,40.00,2,0,7,76.71
2013-8-25,82.0,75.1,72.0,68.0,64.1,59.0,82,70,48,0.00,40.00,3,0,7,81.78
2013-8-26,85.0,74.6,70.0,70.0,65.5,61.0,89,74,49,0.00,40.00,2,0,6,89.41
2013-8-27,78.0,71.5,68.0,69.0,67.9,65.0,91,88,72,0.00,40.00,1,0,7,54.04
2013-10-2,92.0,76.1,61.0,44.0,34.7,28.0,52,25,11,0.00,40.00,7,1,20,0.00
2013-10-3,89.0,77.6,66.0,45.0,32.8,19.0,47,22,8,0.00,40.00,6,2,21,0.00
2013-10-4,75.0,65.2,56.0,27.0,22.6,20.0,31,20,13,0.00,40.00,6,1,12,0.00
2013-10-5,76.0,62.8,57.0,32.0,27.6,23.0,36,27,14,0.00,40.00,4,0,12,0.00
2013-10-6,84.0,67.2,52.0,33.0,28.0,22.0,42,25,10,0.00,40.00,4,1,13,0.00
2013-10-7,84.0,66.8,54.0,41.0,34.6,28.0,53,33,14,0.00,40.00,2,0,9,0.00
2013-10-8,88.0,71.3,55.0,39.0,29.7,19.0,53,26,8,0.00,40.00,4,0,12,0.00
2013-10-9,79.0,70.8,61.0,44.0,35.6,27.0,48,29,15,0.00,40.00,9,1,26,0.00
2013-10-10,70.0,56.5,49.0,47.0,42.8,32.0,83,62,24,0.00,40.00,7,1,31,0.00
2013-10-18,80.0,60.5,49.0,38.0,33.8,26.0,62,40,14,0.00,40.00,1,0,8,0.00
2013-10-19,79.0,59.1,48.0,37.0,29.8,-99.9,61,38,13,0.00,40.00,1,0,6,0.00
2013-10-20,83.0,62.8,48.0,37.0,30.9,20.0,60,34,10,0.00,40.00,3,0,11,0.00
2013-10-21,83.0,61.2,50.0,38.0,32.7,24.0,59,38,12,0.00,40.00,1,0,6,0.00
2013-10-22,82.0,64.4,50.0,37.0,29.7,22.0,54,31,12,0.00,40.00,4,0,10,0.00
2013-10-23,82.0,65.0,51.0,39.0,32.2,24.0,54,33,12,0.00,40.00,2,0,6,0.00
2013-10-24,82.0,66.7,56.0,41.0,34.3,26.0,50,33,13,0.00,40.00,4,0,12,0.00
2013-10-25,82.0,66.9,54.0,44.0,41.6,39.0,59,42,23,0.00,40.00,4,0,10,0.00
2013-10-26,84.0,63.0,53.0,47.0,37.7,-99.9,67,44,15,0.00,40.00,2,0,6,0.00
2013-10-27,82.0,66.6,53.0,43.0,37.8,32.0,62,37,19,0.00,40.00,1,0,11,0.00
2013-10-28,77.0,69.2,66.0,36.0,29.9,-99.9,31,24,19,0.00,40.00,11,4,35,0.00
2013-10-29,69.0,61.5,56.0,42.0,33.6,29.0,47,36,22,0.00,40.00,7,2,20,0.00
2013-10-30,65.0,57.7,53.0,38.0,33.5,31.0,49,40,29,0.00,40.00,7,1,18,0.00
2013-10-31,70.0,56.8,46.0,38.0,32.7,29.0,61,42,23,0.00,40.00,5,1,14,0.00
2013-11-1,77.0,56.6,46.0,37.0,33.6,29.0,64,44,18,0.00,40.00,1,0,5,0.00
2013-11-2,76.0,57.4,47.0,37.0,30.4,-99.9,60,40,18,0.00,40.00,4,0,11,0.00
2013-11-3,80.0,61.4,50.0,36.0,30.6,21.0,54,35,13,0.00,40.00,2,0,8,0.00
2013-11-4,66.0,58.1,51.0,38.0,30.8,28.0,46,36,26,0.00,40.00,4,0,9,0.00
2013-11-5,64.0,55.4,48.0,37.0,27.6,23.0,51,35,22,0.00,40.00,4,1,13,0.00
2013-11-6,66.0,52.2,41.0,25.0,20.2,14.0,47,31,13,0.00,40.00,4,0,10,0.00
2013-11-10,72.0,54.1,44.0,38.0,32.8,29.0,61,46,23,0.00,40.00,0,0,3,0.00
2013-11-11,76.0,55.3,44.0,37.0,32.8,30.0,63,45,19,0.00,40.00,2,0,7,0.00
2013-11-12,73.0,55.6,45.0,39.0,34.4,31.0,64,47,23,0.00,40.00,2,0,7,0.00
2013-11-13,75.0,58.3,48.0,37.0,34.5,31.0,61,44,20,0.00,40.00,2,0,7,0.00
2013-11-14,75.0,55.2,46.0,40.0,34.6,30.0,67,48,20,0.00,40.00,0,0,4,0.00
2013-11-15,77.0,64.6,51.0,40.0,35.7,30.0,51,35,22,0.00,40.00,7,2,17,0.00
2013-11-16,71.0,62.1,58.0,43.0,36.1,-99.9,55,41,26,0.00,40.00,7,2,26,0.00